Showing default

LEOPARD, 67687

Orbit data source: Space-Track

LEOPARD, 67687 is a Japanese payload satellite in LEO that was delivered to the ISS. Payload-class satellites include a variety of spacecraft equipped with specific instruments for various scientific and technological missions. These include communications satellites like Starlink; space stations such as the ISS; scientific satellites like the Hubble; Earth observation satellites from companies like Planet Labs, Umbra, and HawkEye 360; GPS; miniature CubeSats for education and research; and military/defense satellites.

Loading next visibility...
Identifier
67687, 1998-067YD
Orbit
LEO
Country
Flag of JPJP / JPN
Related business
Manufacturer
HUS
Mission
Operational spacecraft
Bus & Motor
CUBESAT 1U, Unknown motor
Mass
1 kg wet, 1 kg dry
Launch date (UTC)
1998-11-20 (28 years ago)
Launch vehicle
H3-24W
Launch site
Tyuratam Missile And Space Complex (TTMTR)
Object type
Payload
Rocket body
Debris
Shape & HBR
Unknown shape, 0.1 m
Radar Cross Section
RCS unknown

Expand to show TLE details & history
Last TLE update: 11 hours ago

TLE from 11 hours ago
0 LEOPARD
1 67687U 98067YD  26145.12106645  .00049348  00000-0  63782-3 0  9994
2 67687  51.6302  50.0450 0009759  97.5806 262.6296 15.58388834 16601
Epoch: 2026-05-25T02:54Z
TLE epoch observation values (Epoch: 2026-05-25T02:54:20.141Z)
Latitude
0.00005°
Longitude
123.74771°
Altitude
393.916 km
Speed
7.675 km/s
True Right ascension
03h 20m 10s
True Declination
0° 00' 00"
Sunlit
Object was in daylight at epoch
Visualization orbit readout
Latitude
Unknown
Longitude
Unknown
Altitude
Unknown
Speed
Unknown
Apparent Right ascension
Unknown
Apparent Declination
Unknown
Sunlit
N/A
Visualization observer readout
Local Sidereal Time
22:43:54
Azimuth
Unknown
Elevation
Unknown
Doppler factor
Unknown
Orbital elements
Apogee altitude
399.439 km
Perigee altitude
386.223 km
Semi-major axis
6,770.968 km
Eccentricity
0.00098
Inclination
51.6302°
RAAN
50.045°
Arg. of periapsis
97.5806°
True anomaly
262.51871°
Mean anomaly
262.6296°
Eccentric anomaly
262.57415°
Mean motion
3.89553 °/min
Orbital period
92.41 mins
BSTAR
0.00063782
Loading maneuver chart data...
Computing Atmospheric mass density...

Documentation

Showing up to 5 results
|